Regional Weather Roundup
Issued by NWS Upton, NY

Current Version | Previous Version | Text Only | Print | Product List | Glossary Off
Versions: 1 2 3 4 5 6 7 8 9 10 11 12 13 14 15 16 17 18 19 20 21 22 23 24 25 26 27 28 29 30 31 32 33 34 35 36 37 38 39 40 41 42 43 44 45 46 47 48 49 50

000
ASUS41 KOKX 291307
RWROKX

REGIONAL WEATHER ROUNDUP
NATIONAL WEATHER SERVICE NEW YORK NY
900 AM EDT SUN MAR 29 2015

NOTE: "FAIR" INDICATES FEW OR NO CLOUDS BELOW 12,000 FEET WITH NO
SIGNIFICANT WEATHER AND/OR OBSTRUCTIONS TO VISIBILITY.

NYZ071-072-176-178-NJZ106-104-291400-
NEW YORK CITY METRO AREA


CITY           SKY/WX    TMP DP  RH WIND       PRES   REMARKS
CENTRAL PARK   MOSUNNY   27   4  37 NW5       30.28R WCI  22
LAGUARDIA APRT MOSUNNY   29   5  36 NW14      30.27R WCI  18
KENNEDY INTL   PTSUNNY   31   2  29 NW15      30.28R WCI  20
NEWARK/LIBERTY MOSUNNY   30   4  33 NW12      30.28R WCI  20
BRNX BOT. GARD   N/A    N/A N/A N/A NW12      30.27F
TETERBORO      SUNNY     29   4  34 NW10      30.28R WCI  20
$$

NYZ177-179-078>081-291400-
LONG ISLAND NEW YORK

CITY           SKY/WX    TMP DP  RH WIND       PRES   REMARKS
FARMINGDALE    SUNNY     28   7  41 N10G17    30.25R WCI  19
ISLIP          MOSUNNY   29   9  43 N14G23    30.22R WCI  18
SHIRLEY        MIX PCPN  28  13  53 N12       30.24R WCI  18
WESTHAMPTON    PTSUNNY   26  14  60 N9        30.23R WCI  17
MONTAUK POINT    N/A     29  13  51 N13G21    30.21R WCI  19
$$

NYZ052-065-067-291400-
HUDSON VALLEY

CITY           SKY/WX    TMP DP  RH WIND       PRES   REMARKS
WHITE PLAINS   SUNNY     27   6  41 NW15      30.23R WCI  15
NEWBURGH       SUNNY     25   7  46 NW7       30.26R WCI  17
MONTGOMERY     SUNNY     28   3  34 NW7       30.25R WCI  21
POUGHKEEPSIE   SUNNY     27   6  41 N6        30.27R WCI  20
ALBANY         SUNNY     24   7  48 CALM      30.26S
$$

NJZ001-105-106-008-010-013-015-019>022-104-291400-
NEW JERSEY

CITY           SKY/WX    TMP DP  RH WIND       PRES   REMARKS
NEWARK/LIBERTY MOSUNNY   30   4  33 NW12      30.28R WCI  20
TETERBORO      SUNNY     29   4  34 NW10      30.28R WCI  20
CALDWELL       SUNNY     28   4  35 NW6       30.28R WCI  22
MORRISTOWN     SUNNY     28   7  40 N12G18    30.28R WCI  18
SOMERVILLE     SUNNY     29   6  38 N12       30.28R WCI  19
SUSSEX         SUNNY     27   6  41 VRB3      30.27R
ANDOVER          N/A     26   8  46 N6        30.27R WCI  19
TRENTON        SUNNY     28   7  41 N12       30.29R WCI  18
MILLVILLE      SUNNY     30   9  41 NW14G24   30.31R WCI  19
ATLANTIC CITY  SUNNY     30   8  39 N18       30.29R WCI  18
WRIGHTSTOWN    SUNNY     29   7  40 NW13      30.28R WCI  18
TOMS RIVER     SUNNY     28   7  40 N13G18    30.28S WCI  18
BELMAR         SUNNY     28   5  37 NW15      30.26S WCI  17
$$

PAZ047>061-062-071-291400-
EASTERN PENNSYLVANIA

CITY           SKY/WX    TMP DP  RH WIND       PRES   REMARKS
PHILADELPHIA   SUNNY     30   7  37 N16       30.33R WCI  19
ALLENTOWN      MIX PCPN  27  11  51 N9        30.30R WCI  18
SCRANTON       SUNNY     24   9  52 N3        30.27R
$$

CTZ002-004>006-009-010-012-RIZ004-006-007-MAZ004-011-015-291400-
SOUTHERN NEW ENGLAND
 IN CT

CITY           SKY/WX    TMP DP  RH WIND       PRES   REMARKS
BRADLEY INTL   MOSUNNY   29   5  36 N10       30.22R WCI  20
HARTFORD       SUNNY     28   6  39 N9        30.24R WCI  19
DANBURY        SUNNY     26   3  37 NW7       30.24R WCI  18
WTRBRY/OXFORD  SUNNY     25   1  36 N7G17     30.20R WCI  17
BRIDGEPORT     MOSUNNY   29   8  41 NW9       30.25R WCI  20
MERIDEN        SUNNY     28   5  37 N10       30.23R WCI  19
NEW HAVEN      PTSUNNY   28   9  44 VRB3      30.23R
CHESTER        PTSUNNY   27  10  50 N10G16    30.20R WCI  17
GROTON         CLOUDY    27  10  49 N14       30.21R WCI  16
WILLIMANTIC    MOSUNNY   28   7  41 N9        30.21R WCI  19

 IN RI

CITY           SKY/WX    TMP DP  RH WIND       PRES   REMARKS
PROVIDENCE     PTSUNNY   26  12  55 N13       30.20R WCI  15
BLOCK ISLAND   CLOUDY    28  18  64 N13G18    30.18R WCI  18
WESTERLY       CLOUDY    25  15  66 N9        30.20R WCI  15

 IN MA

CITY           SKY/WX    TMP DP  RH WIND       PRES   REMARKS
BOSTON         MOSUNNY   29   8  41 NW8       30.20R WCI  21
WORCESTER      SUNNY     25   2  37 N10       30.15R WCI  15
WESTFIELD      SUNNY     29   5  36 N6        30.22R WCI  23
PROVINCETOWN   CLOUDY    32  16  51 N13       30.17R WCI  22
NANTUCKET      PTSUNNY   35  24  64 N21       30.13R WCI  24
$$

ANZ330-335-338-340-345-350-353-355-291400-
COASTAL MARINE OBSERVATIONS


STATION/POSITION TIME  SKY/WX   TEMP    WIND        PRES    VSBY  WAVE
                                AIR SEA DIR/SP/G                  HT/PER
                 (UTC)          (F)     (DEG/KT/KT) (MB)    (MI)  (FT/S)
NY HARB ENTRANCE 1250            29 38  340/ 16/ 19 1024.2          3/11
4S FIRE IS       1203               37                N/A           4/11
20S FIRE ISLAND  1150               38              1023.4          5/10
23SW MTP         1250                                 N/A           6/10
HUDSON CANYON    NOT AVBL
EXECUTION ROCKS  NOT AVBL
WESTERN LI SOUND NOT AVBL
CENTRAL LI SOUND NOT AVBL
EASTERN LI SOUND NOT AVBL
ROBBINS REEF     1206            26     330/ 13/ 16 1023.7
$$


>>>>>>>>>>>>>>>>>>>>>>>>>>>> KEY <<<<<<<<<<<<<<<<<<<<<<<<<<<
>                                                          <
>     SKY/WX - SKY CONDITION/PRESENT WEATHER               <
>     TMP    - TEMPERATURE IN FAHRENHEIT                   <
>     DP     - DEWPOINT IN FAHRENHEIT                      <
>     RH     - RELATIVE HUMIDITY IN PERCENT                <
>     WIND   - DIRECTION AND SPEED IN MPH                  <
>     PRES   - MEAN SEA LEVEL PRESSURE IN INCHES OF HG     <
>     WCI    - WIND CHILL INDEX                            <
>     VSB    - VISIBILITY IN MILES                         <
>     HX     - HEAT INDEX                                  <
>     TC     - TEMPERATURE IN CELSIUS                      <
>     VRB    - VARIABLE WIND DIRECTION                     <
>                                                          <
>>>>>>>>>>>>>>>>>>>>>>>>>>>> KEY <<<<<<<<<<<<<<<<<<<<<<<<<<<




USA.gov is the U.S. government's official web portal to all federal, state and local government web resources and services.